This is the latest recevied weather packets stored in our database for station/object N3WXO-1. If no packets are shown the sender has not sent any weather packets the latest 10 day(s).
| Time | Temp. | Humidity | Pressure | Rain* | Wind** | Luminosity | Snow |
|---|---|---|---|---|---|---|---|
| 1777939231 | 20° C | 45% | 1009.1 hPa | 0 mm | - | 0 W/m² | - |
| 1777938927 | 20.56° C | 46% | 1008.9 hPa | 0 mm | - | 0 W/m² | - |
| 1777938624 | 20.56° C | 44% | 1008.8 hPa | 0 mm | - | 5 W/m² | - |
| 1777938319 | 20.56° C | 44% | 1008.6 hPa | 0 mm | - | 7 W/m² | - |
| 1777938036 | 20.56° C | 44% | 1008.5 hPa | 0 mm | - | 9 W/m² | - |
| 1777937733 | 21.11° C | 44% | 1008.5 hPa | 0 mm | - | 11 W/m² | - |
| 1777937429 | 21.11° C | 44% | 1008.5 hPa | 0 mm | - | 16 W/m² | - |
| 1777937125 | 21.11° C | 43% | 1008.5 hPa | 0 mm | - | 14 W/m² | - |
| 1777936821 | 21.11° C | 42% | 1008.3 hPa | 0 mm | - | 14 W/m² | - |
| 1777936536 | 21.11° C | 42% | 1008.3 hPa | 0 mm | - | 18 W/m² | - |
| 1777936229 | 21.67° C | 43% | 1008.4 hPa | 0 mm | - | 16 W/m² | - |
| 1777935925 | 21.67° C | 42% | 1008.3 hPa | 0 mm | - | 21 W/m² | - |
| 1777935624 | 21.67° C | 42% | 1008.3 hPa | 0 mm | - | 28 W/m² | - |
| 1777935320 | 21.67° C | 41% | 1008.3 hPa | 0 mm | - | 42 W/m² | - |
| 1777935036 | 21.67° C | 41% | 1008.2 hPa | 0 mm | - | 39 W/m² | - |
| 1777934731 | 22.22° C | 41% | 1008.2 hPa | 0 mm | - | 44 W/m² | - |
| 1777934426 | 22.22° C | 41% | 1008.2 hPa | 0 mm | - | 77 W/m² | - |
| 1777934121 | 22.22° C | 40% | 1008.2 hPa | 0 mm | - | 105 W/m² | - |
| 1777933832 | 22.22° C | 40% | 1008.2 hPa | 0 mm | - | 91 W/m² | - |
| 1777933527 | 22.22° C | 40% | 1008.1 hPa | 0 mm | - | 62 W/m² | - |
| 1777933225 | 22.78° C | 41% | 1008.1 hPa | 0 mm | - | 56 W/m² | - |
| 1777932918 | 22.78° C | 40% | 1008.3 hPa | 0 mm | - | 176 W/m² | - |
| 1777932632 | 22.78° C | 40% | 1008.3 hPa | 0 mm | - | 120 W/m² | - |
| 1777932340 | 22.78° C | 40% | 1008.4 hPa | 0 mm | - | 95 W/m² | - |
| 1777932033 | 22.78° C | 41% | 1008.3 hPa | 0 mm | - | 111 W/m² | - |
* Rain latest hour (hover to see other rain measurements)
** Current wind speed in m/s (hover to see current wind gust speed)